Regional Weather Roundup
Issued by NWS Columbia, SC

Home | Current Version | Previous Version | Text Only | Print | Product List | Glossary On
Versions: 1 2 3 4 5 6 7 8 9 10 11 12 13 14 15 16 17 18 19 20 21 22 23 24 25 26 27 28 29 30 31 32 33 34 35 36 37 38 39 40 41 42 43 44 45 46 47 48 49 50
000
ASUS42 KCAE 122110
RWRCAE
REGIONAL WEATHER ROUNDUP
NATIONAL WEATHER SERVICE COLUMBIA SC
400 PM EST FRI FEB 12 2016

NOTE: "FAIR" INDICATES FEW OR NO CLOUDS BELOW 12,000 FEET WITH NO
SIGNIFICANT WEATHER AND/OR OBSTRUCTIONS TO VISIBILITY.

NOT ALL STATIONS ARE QUALITY CONTROLLED BY THE NATIONAL
WEATHER SERVICE. USE DATA WITH CAUTION...ESPECIALLY
DEWPOINT OBSERVATIONS.

SCZ001>056-GAZ040-063>065-077-122200-
...UPSTATE SOUTH CAROLINA...

CITY           SKY/WX    TMP DP  RH WIND       PRES   REMARKS
ANDERSON       SUNNY     52  27  38 VRB3      30.02S
LIBERTY        CLOUDY    48  33  55 NW5       30.00S
SPARTANBURG    PTSUNNY   39  30  70 CALM      30.02S
CLEMSON        CLOUDY    54  30  40 W10       30.01F
GREENVILLE     CLOUDY    45  31  58 NW6       30.02S
GREENWOOD      SUNNY     53  27  36 SW8       30.03F
GREER          PTSUNNY   43  33  68 CALM      30.01F
ROCK HILL      CLOUDY    36  28  73 NW3       30.03F
LAURENS        CLEAR     50  30  46 CALM      30.00F


...CENTRAL SOUTH CAROLINA...

CITY           SKY/WX    TMP DP  RH WIND       PRES   REMARKS
COLUMBIA APT   SUNNY     51  29  42 W6        30.03F
COLUMBIA OWENS SUNNY     48  27  44 CALM      30.04F
MCENTIRE ANGB  MOSUNNY   48  27  43 VRB1      30.04F
ORANGEBURG     SUNNY     55  37  50 VRB3      30.02F
SUMTER SHAW    MOSUNNY   45  25  44 E3        30.01F
NEWBERRY       CLEAR     50  27  40 CALM      30.05S
AIKEN          FAIR      54  34  47 CALM      30.05S
BARNWELL       FAIR      57  43  58 CALM      30.02F
MANNING        CLOUDY    45  28  53 N5        30.04F
CAMDEN         MOCLDY    45  45 100 CALM      30.04F
LANCASTER      PTCLDY    41  25  52 NW5       30.04S
WINNSBORO      PTCLDY    50  28  43 CALM      30.01F


...EASTERN AND COASTAL SOUTH CAROLINA...

CITY           SKY/WX    TMP DP  RH WIND       PRES   REMARKS
N MYRTLE BCH   CLOUDY    42  27  55 NW7       30.03R
CONWAY         CLOUDY    41  28  60 CALM      30.04S HAZE
MARION         CLOUDY    37  27  65 N6        30.06R WCI  33
HARTSVILLE     FAIR      41  27  56 E3        30.03F
FLORENCE       CLOUDY    39  24  55 N5        30.05F
DARLINGTON     PTSUNNY   39  25  56 CALM      30.06F
CHARLESTON APT CLOUDY    55  49  80 NW7       30.02S
MOUNT PLEASANT CLOUDY    50  48  93 CALM      30.03R
WALTERBORO     CLOUDY    55  50  82 NW8       30.04R
BEAUFORT       CLOUDY    61  51  70 NW9       30.02S


...EASTERN GEORGIA...

CITY           SKY/WX    TMP DP  RH WIND       PRES   REMARKS
AUGUSTA BUSH F SUNNY     58  37  45 NW8       30.02F
AUGUSTA DANIEL SUNNY     56  36  47 VRB7      30.03F
THOMSON        SUNNY     58  39  48 NW5       30.07S
WASHINGTON     FAIR      61  37  41 CALM      30.03S
CLAXTON        MOCLDY    66  55  67 SW16G22   30.03R
SYLVANIA       CLEAR     62  54  73 NW8       30.04S
STATESBORO     MOSUNNY   69  47  44 W12       30.02F
SAVANNAH       CLOUDY    68  53  58 W15G29    30.01F


...SOUTHERN NORTH CAROLINA...

CITY           SKY/WX    TMP DP  RH WIND       PRES   REMARKS
CHARLOTTE      CLOUDY    36  20  52 CALM      30.03F
MONROE         CLOUDY    36  26  67 CALM      30.02F
WADESBORO      CLOUDY    35  24  64 CALM      30.05F
ROCKINGHAM     CLOUDY    32  29  89 CALM      30.04F
RUTHERFORDTON  CLOUDY    37  22  54 S5        30.01S WCI  34
ASHEVILLE      CLOUDY    36  28  73 N14       29.99F WCI  27

$$



USA.gov is the U.S. government's official web portal to all federal, state and local government web resources and services.